Terminal Aerodrome Forecast
Issued by NWS

Home | Current Version | Previous Version | Text Only | Print | Product List | Glossary On
Versions: 1 2 3 4 5 6 7 8 9 10 11 12
907
FTUS45 KRIW 051720
TAFCOD
TAF
KCOD 051720Z 0518/0618 22008KT P6SM FEW100 BKN250
     FM052000 16010KT P6SM VCSH SCT090 BKN150
     FM060200 22008KT P6SM VCSH SCT060 BKN080
     FM061100 36008KT P6SM VCSH SCT025 BKN050
      AMD LTD TO CLD VIS AND WIND=

USA.gov is the U.S. government's official web portal to all federal, state and local government web resources and services.